Farmville, Virginia, United States (23901)
Lat: 37.30N, Lon: 78.39W
Wx Zone: VAZ060
Local Info
Past Weather Observations for Today

NOTE: This archive is for the closest National Weather Service station to Farmville. Information may differ from the station used for current weather conditions.

Click here for Long-term Archive

Time Weather Temperature Dewpoint Humidity Pressure Winds Precip Visibility
12:55
Partly Cloudy
88°F / 31°C 72°F / 22°C 59% 30.18 in
(1022 mb)
S 3.5 mph
(S 6 kph)
- 10SM
12:35
Mostly Cloudy
82°F / 28°C 70°F / 21°C 66% 30.18 in
(1022 mb)
Calm - 10SM
12:15
Mostly Cloudy
82°F / 28°C 72°F / 22°C 70% 30.18 in
(1022 mb)
SSE 4.6 mph
(SSE 7 kph)
- 10SM
11:55
Mostly Cloudy
82°F / 28°C 72°F / 22°C 70% 30.18 in
(1022 mb)
SSE 3.5 mph
(SSE 6 kph)
- 10SM
11:35
Mostly Cloudy
81°F / 27°C 70°F / 21°C 70% 30.18 in
(1022 mb)
Calm - 10SM
11:15
Mostly Cloudy
81°F / 27°C 70°F / 21°C 70% 30.21 in
(1023 mb)
Calm - 10SM
10:55
Overcast
79°F / 26°C 70°F / 21°C 74% 30.21 in
(1023 mb)
SSE 3.5 mph
(SSE 6 kph)
- 10SM
10:35
Overcast
79°F / 26°C 70°F / 21°C 74% 30.21 in
(1023 mb)
Calm - 10SM
10:15
Overcast
77°F / 25°C 70°F / 21°C 79% 30.21 in
(1023 mb)
Calm - 10SM
09:55
Overcast
77°F / 25°C 70°F / 21°C 79% 30.21 in
(1023 mb)
Calm - 10SM
09:35
Overcast
79°F / 26°C 70°F / 21°C 74% 30.21 in
(1023 mb)
SE 4.6 mph
(SE 7 kph)
- 10SM
09:15
Overcast
75°F / 24°C 68°F / 20°C 78% 30.21 in
(1023 mb)
SW 4.6 mph
(SW 7 kph)
- 10SM
08:55
Overcast
75°F / 24°C 68°F / 20°C 78% 30.21 in
(1023 mb)
S 4.6 mph
(S 7 kph)
- 10SM
08:35
Overcast
75°F / 24°C 68°F / 20°C 78% 30.21 in
(1023 mb)
S 3.5 mph
(S 6 kph)
- 10SM
08:15
Overcast
73°F / 23°C 68°F / 20°C 83% 30.21 in
(1023 mb)
S 5.8 mph
(S 9 kph)
- 10SM
07:55
Overcast
73°F / 23°C 70°F / 21°C 89% 30.21 in
(1023 mb)
S 4.6 mph
(S 7 kph)
- 10SM
07:35
Overcast
73°F / 23°C 72°F / 22°C 94% 30.21 in
(1023 mb)
S 3.5 mph
(S 6 kph)
- 10SM
07:15
Overcast
73°F / 23°C 72°F / 22°C 94% 30.21 in
(1023 mb)
Calm - 10SM
06:55
Overcast
72°F / 22°C 70°F / 21°C 94% 30.21 in
(1023 mb)
Calm - 10SM
06:35
Overcast
72°F / 22°C 72°F / 22°C 100% 30.21 in
(1023 mb)
Calm - 10SM
06:15
Overcast
72°F / 22°C 70°F / 21°C 94% 30.21 in
(1023 mb)
Calm - 10SM
05:55
Overcast
72°F / 22°C 70°F / 21°C 94% 30.21 in
(1023 mb)
Calm - 10SM
05:35
Overcast
72°F / 22°C 70°F / 21°C 94% 30.21 in
(1023 mb)
Calm - 10SM
05:15
Overcast
72°F / 22°C 70°F / 21°C 94% 30.18 in
(1022 mb)
Calm - 10SM
04:55
Overcast
72°F / 22°C 70°F / 21°C 94% 30.21 in
(1023 mb)
Calm - 10SM
04:35
Overcast
72°F / 22°C 70°F / 21°C 94% 30.18 in
(1022 mb)
Calm - 10SM
04:15
Overcast
72°F / 22°C 70°F / 21°C 94% 30.18 in
(1022 mb)
Calm - 10SM
03:55
Overcast
72°F / 22°C 70°F / 21°C 94% 30.18 in
(1022 mb)
Calm - 10SM
03:35
Overcast
72°F / 22°C 70°F / 21°C 94% 30.18 in
(1022 mb)
Calm - 10SM
03:15
Overcast
72°F / 22°C 70°F / 21°C 94% 30.18 in
(1022 mb)
Calm - 10SM
02:55
Overcast
72°F / 22°C 70°F / 21°C 94% 30.18 in
(1022 mb)
Calm - 10SM
02:35
Mostly Cloudy
72°F / 22°C 70°F / 21°C 94% 30.18 in
(1022 mb)
Calm - 10SM
02:15
Overcast
72°F / 22°C 68°F / 20°C 88% 30.18 in
(1022 mb)
Calm - 10SM
01:55
Overcast
72°F / 22°C 70°F / 21°C 94% 30.18 in
(1022 mb)
Calm - 10SM
01:35
Overcast
72°F / 22°C 68°F / 20°C 88% 30.18 in
(1022 mb)
SSE 3.5 mph
(SSE 6 kph)
- 10SM
01:15
Overcast
73°F / 23°C 68°F / 20°C 83% 30.18 in
(1022 mb)
S 5.8 mph
(S 9 kph)
- 10SM
00:55
Overcast
72°F / 22°C 70°F / 21°C 94% 30.18 in
(1022 mb)
Calm - 10SM
00:35
Overcast
73°F / 23°C 66°F / 19°C 78% 30.18 in
(1022 mb)
Calm - 10SM
00:15
Overcast
73°F / 23°C 66°F / 19°C 78% 30.18 in
(1022 mb)
SSE 3.5 mph
(SSE 6 kph)
- 10SM
Time Weather Temperature Dewpoint Humidity Pressure Winds Precip Visibility


Weather for websites

WeatherForYou.com, LLC is not responsible for any damages or problems caused by this service. Current weather conditions are obtained from the closest station including government and personal stations which may have varying degrees of accuracy. Weather forecasts are derived from the NOAA NDFD. Like all things, this site belongs to Jesus Christ... He just trusts me to maintain it. If you have any questions or comments email webmaster@weatherforyou.com

Copyright © 2014, WeatherForYou.com LLC. All rights reserved.